Simultaneous Nadir Overpasses (SNOs) Predictions

Prediction of SNOs between GOES-16 and NOAA-20 Satellite Orbit:

Table of predicted SNOs for the next 14.0 days since TLE Epoch: 7/4/2020
Index Date Time (GOES-16) GOES-16 Lat,Lon NOAA-20 Lat,Lon Distance(km) Time Diff (sec)
1 07/04/2020 18:23:11 -0.01, -75.20 0.19, -74.27 105.60 80
2 07/06/2020 06:44:58 0.02, -75.20 0.98, -79.54 494.54 80
3 07/07/2020 06:23:32 0.02, -75.20 -0.01, -75.00 22.38 80
4 07/09/2020 18:26:43 -0.02, -75.22 -0.14, -75.78 63.41 80
5 07/10/2020 18:10:38 -0.02, -75.23 0.85, -71.24 454.33 80
6 07/12/2020 06:32:25 0.03, -75.25 0.32, -76.51 143.99 80
7 07/13/2020 06:11:01 0.03, -75.26 -0.72, -71.99 373.98 80
8 07/14/2020 18:32:56 -0.03, -75.29 -0.47, -77.29 227.91 80
9 07/15/2020 18:16:50 -0.03, -75.30 0.52, -72.75 290.47 80
10 07/17/2020 06:38:38 0.04, -75.33 0.65, -78.02 306.86 80
